Tracking 30703 objects as of 12-Jun-2025
HD Live streaming from Space Station
objects crossing your sky now

STARLINK-3896

Track STARLINK-3896 now!
10-day predictions
STARLINK-3896 is classified as:


NORAD ID: 52456
Int'l Code: 2022-049F
Perigee: 546.1 km
Apogee: 547.7 km
Inclination: 53.2 °
Period: 95.4 minutes
Semi major axis: 6917 km
RCS: Unknown
Launch date: May 6, 2022
Source: United States (US)
Launch site: AIR FORCE EASTERN TEST RANGE (AFETR)
Your satellite tracking list
Your tracking list is empty




NASA's NSSDC Master Catalog

Two Line Element Set (TLE):
1 52456U 22049F   25163.37242732  .00000435  00000-0  45414-4 0  9990
2 52456  53.2163 202.6210 0001188  69.9834 290.1286 15.08841418171461
Source of the keplerian elements: AFSPC